OK1VCF-8 Weather Reports


time (UTC)temp
F
wind
direction
speed
knots
gust
knots
rain 1hr
in
rain 24hr
in
rain mn
in
humidity
%
barometer
mb
20260906131203 68 0 0.0 0.0 0.00 0.00 0.00 44 1028.2
20260906130436 68 0 0.0 0.0 0.00 0.00 0.00 44 1028.3
20260906125711 67 0 0.0 0.0 0.00 0.00 0.00 44 1028.2
20260906124947 67 0 0.0 0.0 0.00 0.00 0.00 44 1028.2
20260906124218 67 0 0.0 0.0 0.00 0.00 0.00 44 1028.3
20260906123442 67 0 0.0 0.0 0.00 0.00 0.00 44 1028.2
20260906122708 67 0 0.0 0.0 0.00 0.00 0.00 44 1028.4
20260906121927 67 0 0.0 0.0 0.00 0.00 0.00 44 1028.5
20260906121144 68 0 0.0 0.0 0.00 0.00 0.00 45 1028.5
20260906120359 67 0 0.0 0.0 0.00 0.00 0.00 46 1028.6
20260906115618 66 0 0.0 0.0 0.00 0.00 0.00 46 1028.6
20260906114840 67 0 0.0 0.0 0.00 0.00 0.00 46 1028.6
20260906114101 66 0 0.0 0.0 0.00 0.00 0.00 46 1028.6
20260906113043 66 0 0.0 0.0 0.00 0.00 0.00 47 1028.8
20260906112319 67 0 0.0 0.0 0.00 0.00 0.00 46 1028.8
20260906111556 66 0 0.0 0.0 0.00 0.00 0.00 48 1028.8
20260906110835 64 0 0.0 0.0 0.00 0.00 0.00 48 1028.8
20260906110112 66 0 0.0 0.0 0.00 0.00 0.00 48 1028.8
20260906105351 66 0 0.0 0.0 0.00 0.00 0.00 48 1028.8
20260906104629 66 0 0.0 0.0 0.00 0.00 0.00 48 1029.2
20260906103906 66 0 0.0 0.0 0.00 0.00 0.00 45 1029.1
20260906103145 66 0 0.0 0.0 0.00 0.00 0.00 46 1029.2
20260906102424 65 0 0.0 0.0 0.00 0.00 0.00 48 1029.3
20260906101705 63 0 0.0 0.0 0.00 0.00 0.00 48 1029.3
20260906100945 65 0 0.0 0.0 0.00 0.00 0.00 48 1029.4
20260906100225 65 0 0.0 0.0 0.00 0.00 0.00 48 1029.3
20260906095504 64 0 0.0 0.0 0.00 0.00 0.00 48 1029.2
20260906094744 64 0 0.0 0.0 0.00 0.00 0.00 50 1029.3
20260906093739 65 0 0.0 0.0 0.00 0.00 0.00 49 1029.3
20260906093020 65 0 0.0 0.0 0.00 0.00 0.00 49 1029.3
20260906092301 64 0 0.0 0.0 0.00 0.00 0.00 51 1029.3
20260906091541 63 0 0.0 0.0 0.00 0.00 0.00 52 1029.4
20260906090823 64 0 0.0 0.0 0.00 0.00 0.00 50 1029.2
20260906090106 65 0 0.0 0.0 0.00 0.00 0.00 49 1029.4
20260906085347 64 0 0.0 0.0 0.00 0.00 0.00 50 1029.3
20260906084630 63 0 0.0 0.0 0.00 0.00 0.00 54 1029.4
20260906083913 62 0 0.0 0.0 0.00 0.00 0.00 55 1029.4
20260906083156 64 0 0.0 0.0 0.00 0.00 0.00 54 1029.4
20260906082438 62 0 0.0 0.0 0.00 0.00 0.00 56 1029.3
20260906081719 62 0 0.0 0.0 0.00 0.00 0.00 56 1029.2
20260906081002 62 0 0.0 0.0 0.00 0.00 0.00 56 1029.1
20260906080243 62 0 0.0 0.0 0.00 0.00 0.00 58 1029.0
20260906075523 61 0 0.0 0.0 0.00 0.00 0.00 60 1029.0
20260906074520 61 0 0.0 0.0 0.00 0.00 0.00 61 1028.8
20260906073801 62 0 0.0 0.0 0.00 0.00 0.00 62 1028.6
20260906073041 61 0 0.0 0.0 0.00 0.00 0.00 62 1028.6
20260906072323 60 0 0.0 0.0 0.00 0.00 0.00 63 1028.7
20260906071556 62 0 0.0 0.0 0.00 0.00 0.00 62 1028.6
20260906070833 61 0 0.0 0.0 0.00 0.00 0.00 64 1028.5
20260906070107 60 0 0.0 0.0 0.00 0.00 0.00 64 1028.3
20260906065340 60 0 0.0 0.0 0.00 0.00 0.00 65 1028.2
20260906064615 60 0 0.0 0.0 0.00 0.00 0.00 68 1028.2
20260906063850 60 0 0.0 0.0 0.00 0.00 0.00 68 1028.2
20260906063127 60 0 0.0 0.0 0.00 0.00 0.00 68 1028.2
20260906062359 58 0 0.0 0.0 0.00 0.00 0.00 70 1028.2
20260906061633 58 0 0.0 0.0 0.00 0.00 0.00 72 1028.1
20260906060911 57 0 0.0 0.0 0.00 0.00 0.00 73 1028.0
20260906060147 56 0 0.0 0.0 0.00 0.00 0.00 74 1027.9
20260906055135 56 0 0.0 0.0 0.00 0.00 0.00 75 1027.8
20260906054416 56 0 0.0 0.0 0.00 0.00 0.00 76 1027.7
20260906053658 55 0 0.0 0.0 0.00 0.00 0.00 78 1027.6
20260906052938 54 0 0.0 0.0 0.00 0.00 0.00 78 1027.6
20260906052221 55 0 0.0 0.0 0.00 0.00 0.00 78 1027.4
20260906051503 55 0 0.0 0.0 0.00 0.00 0.00 78 1027.6
20260906050746 55 0 0.0 0.0 0.00 0.00 0.00 78 1027.4
20260906050028 54 0 0.0 0.0 0.00 0.00 0.00 80 1027.3
20260906045310 53 0 0.0 0.0 0.00 0.00 0.00 80 1027.2
20260906044554 53 0 0.0 0.0 0.00 0.00 0.00 80 1027.2
20260906043838 53 0 0.0 0.0 0.00 0.00 0.00 80 1027.2
20260906043121 54 0 0.0 0.0 0.00 0.00 0.00 80 1027.2
20260906042403 52 0 0.0 0.0 0.00 0.00 0.00 80 1027.2
20260906041645 54 0 0.0 0.0 0.00 0.00 0.00 76 1027.2
20260906040929 55 0 0.0 0.0 0.00 0.00 0.00 76 1027.0
20260906035926 56 0 0.0 0.0 0.00 0.00 0.00 74 1026.9
20260906035209 56 0 0.0 0.0 0.00 0.00 0.00 74 1026.8
20260906034450 56 0 0.0 0.0 0.00 0.00 0.00 75 1026.7
20260906033734 56 0 0.0 0.0 0.00 0.00 0.00 75 1026.8
20260906033017 55 0 0.0 0.0 0.00 0.00 0.00 78 1026.6
20260906032305 54 0 0.0 0.0 0.00 0.00 0.00 78 1026.6
20260906031544 54 0 0.0 0.0 0.00 0.00 0.00 79 1026.6
20260906030826 54 0 0.0 0.0 0.00 0.00 0.00 80 1026.6
20260906030110 54 0 0.0 0.0 0.00 0.00 0.00 79 1026.6
20260906025352 54 0 0.0 0.0 0.00 0.00 0.00 80 1026.5
20260906024635 54 0 0.0 0.0 0.00 0.00 0.00 78 1026.4
20260906023918 56 0 0.0 0.0 0.00 0.00 0.00 75 1026.3
20260906023202 57 0 0.0 0.0 0.00 0.00 0.00 72 1026.4
20260906022445 57 0 0.0 0.0 0.00 0.00 0.00 72 1026.3
20260906021729 57 0 0.0 0.0 0.00 0.00 0.00 72 1026.2
20260906020728 57 0 0.0 0.0 0.00 0.00 0.00 72 1026.2
20260906020011 57 0 0.0 0.0 0.00 0.00 0.00 72 1026.2
20260906015253 57 0 0.0 0.0 0.00 0.00 0.00 72 1026.0
20260906014535 58 0 0.0 0.0 0.00 0.00 0.00 72 1025.9
20260906013819 58 0 0.0 0.0 0.00 0.00 0.00 70 1025.9
20260906013101 58 0 0.0 0.0 0.00 0.00 0.00 70 1026.0
20260906012341 58 0 0.0 0.0 0.00 0.00 0.00 70 1026.0
20260906011621 58 0 0.0 0.0 0.00 0.00 0.00 70 1025.8
20260906010901 58 0 0.0 0.0 0.00 0.00 0.00 69 1026.0
20260906010137 58 0 0.0 0.0 0.00 0.00 0.00 69 1026.0
20260906005406 59 0 0.0 0.0 0.00 0.00 0.00 68 1026.0
20260906004637 59 0 0.0 0.0 0.00 0.00 0.00 66 1025.9
20260906003913 60 0 0.0 0.0 0.00 0.00 0.00 66 1025.9
20260906003150 59 0 0.0 0.0 0.00 0.00 0.00 67 1026.0
20260906002424 59 0 0.0 0.0 0.00 0.00 0.00 67 1025.9
20260906001415 58 0 0.0 0.0 0.00 0.00 0.00 70 1025.8
20260906000653 57 0 0.0 0.0 0.00 0.00 0.00 69 1025.8
20260905235928 58 0 0.0 0.0 0.00 0.00 0.00 68 1025.6
20260905235206 59 0 0.0 0.0 0.00 0.00 0.00 66 1025.5
20260905234438 59 0 0.0 0.0 0.00 0.00 0.00 67 1025.6
20260905233708 59 0 0.0 0.0 0.00 0.00 0.00 66 1025.4
20260905232940 60 0 0.0 0.0 0.00 0.00 0.00 65 1025.4
20260905232209 60 0 0.0 0.0 0.00 0.00 0.00 64 1025.4
20260905231449 59 0 0.0 0.0 0.00 0.00 0.00 65 1025.4
20260905230732 59 0 0.0 0.0 0.00 0.00 0.00 65 1025.2
20260905230015 60 0 0.0 0.0 0.00 0.00 0.00 64 1025.2
20260905225258 59 0 0.0 0.0 0.00 0.00 0.00 64 1025.2
20260905224541 59 0 0.0 0.0 0.00 0.00 0.00 64 1025.1
20260905223824 60 0 0.0 0.0 0.00 0.00 0.00 62 1025.0
20260905223108 60 0 0.0 0.0 0.00 0.00 0.00 62 1025.2
20260905222106 60 0 0.0 0.0 0.00 0.00 0.00 60 1025.0
20260905221349 61 0 0.0 0.0 0.00 0.00 0.00 59 1024.8
20260905220633 62 0 0.0 0.0 0.00 0.00 0.00 59 1025.1
20260905215915 62 0 0.0 0.0 0.00 0.00 0.00 58 1025.0
20260905215159 62 0 0.0 0.0 0.00 0.00 0.00 58 1024.9
20260905214442 61 0 0.0 0.0 0.00 0.00 0.00 59 1024.8
20260905213725 61 0 0.0 0.0 0.00 0.00 0.00 59 1024.8
20260905213008 62 0 0.0 0.0 0.00 0.00 0.00 57 1024.7
20260905212251 62 0 0.0 0.0 0.00 0.00 0.00 56 1024.6
20260905211533 62 0 0.0 0.0 0.00 0.00 0.00 56 1024.5
20260905210815 64 0 0.0 0.0 0.00 0.00 0.00 54 1024.5
20260905210057 62 0 0.0 0.0 0.00 0.00 0.00 54 1024.5
20260905205339 63 0 0.0 0.0 0.00 0.00 0.00 54 1024.4
20260905204620 62 0 0.0 0.0 0.00 0.00 0.00 54 1024.4
20260905203902 62 0 0.0 0.0 0.00 0.00 0.00 54 1024.4
20260905201433 62 0 0.0 0.0 0.00 0.00 0.00 56 1024.0
20260905200716 62 0 0.0 0.0 0.00 0.00 0.00 56 1024.0
20260905195956 61 0 0.0 0.0 0.00 0.00 0.00 59 1023.8
20260905195238 62 0 0.0 0.0 0.00 0.00 0.00 58 1023.8
20260905194521 62 0 0.0 0.0 0.00 0.00 0.00 58 1023.7
20260905193802 62 0 0.0 0.0 0.00 0.00 0.00 57 1023.4
20260905193043 62 0 0.0 0.0 0.00 0.00 0.00 56 1023.4
20260905192322 63 0 0.0 0.0 0.00 0.00 0.00 55 1023.4
20260905191603 64 0 0.0 0.0 0.00 0.00 0.00 54 1023.3
20260905190843 62 0 0.0 0.0 0.00 0.00 0.00 58 1023.1
20260905190125 63 0 0.0 0.0 0.00 0.00 0.00 56 1023.0
20260905185405 64 0 0.0 0.0 0.00 0.00 0.00 56 1023.1
20260905184647 64 0 0.0 0.0 0.00 0.00 0.00 54 1022.8
20260905183641 65 0 0.0 0.0 0.00 0.00 0.00 53 1022.8
20260905182922 64 0 0.0 0.0 0.00 0.00 0.00 53 1022.9
20260905182203 65 0 0.0 0.0 0.00 0.00 0.00 53 1022.8
20260905181443 65 0 0.0 0.0 0.00 0.00 0.00 52 1022.6
20260905180723 66 0 0.0 0.0 0.00 0.00 0.00 51 1022.5
20260905180003 66 0 0.0 0.0 0.00 0.00 0.00 50 1022.4
20260905175244 66 0 0.0 0.0 0.00 0.00 0.00 49 1022.2
20260905174527 67 0 0.0 0.0 0.00 0.00 0.00 48 1022.1
20260905173808 67 0 0.0 0.0 0.00 0.00 0.00 48 1021.9
20260905173049 68 0 0.0 0.0 0.00 0.00 0.00 47 1021.8
20260905172330 68 0 0.0 0.0 0.00 0.00 0.00 46 1021.8
20260905171611 68 0 0.0 0.0 0.00 0.00 0.00 46 1021.6
20260905170853 69 0 0.0 0.0 0.00 0.00 0.00 46 1021.6
20260905170135 70 0 0.0 0.0 0.00 0.00 0.00 45 1021.4
20260905165415 70 0 0.0 0.0 0.00 0.00 0.00 44 1021.3
20260905164412 70 0 0.0 0.0 0.00 0.00 0.00 44 1021.2
20260905163653 75 0 0.0 0.0 0.00 0.00 0.00 38 1021.0
20260905162934 76 0 0.0 0.0 0.00 0.00 0.00 37 1021.0
20260905162214 76 0 0.0 0.0 0.00 0.00 0.00 37 1020.9
20260905161454 80 0 0.0 0.0 0.00 0.00 0.00 35 1020.8
20260905160734 78 0 0.0 0.0 0.00 0.00 0.00 36 1020.6
20260905160014 78 0 0.0 0.0 0.00 0.00 0.00 36 1020.6
20260905155256 78 0 0.0 0.0 0.00 0.00 0.00 37 1020.6
20260905154536 74 0 0.0 0.0 0.00 0.00 0.00 40 1020.4
20260905153818 74 0 0.0 0.0 0.00 0.00 0.00 40 1020.4
20260905153059 78 0 0.0 0.0 0.00 0.00 0.00 36 1020.4
20260905152341 76 0 0.0 0.0 0.00 0.00 0.00 38 1020.4
20260905151621 78 0 0.0 0.0 0.00 0.00 0.00 36 1020.4
20260905150903 74 0 0.0 0.0 0.00 0.00 0.00 39 1020.2
20260905150143 74 0 0.0 0.0 0.00 0.00 0.00 40 1020.4
20260905145137 74 0 0.0 0.0 0.00 0.00 0.00 40 1020.1
20260905144418 74 0 0.0 0.0 0.00 0.00 0.00 40 1020.3
20260905143659 74 0 0.0 0.0 0.00 0.00 0.00 41 1020.2
20260905142939 74 0 0.0 0.0 0.00 0.00 0.00 40 1020.2
20260905142220 74 0 0.0 0.0 0.00 0.00 0.00 40 1020.2
20260905140033 74 0 0.0 0.0 0.00 0.00 0.00 41 1020.3
20260905133853 73 0 0.0 0.0 0.00 0.00 0.00 42 1020.3
20260905133132 73 0 0.0 0.0 0.00 0.00 0.00 43 1020.2
20260905132412 72 0 0.0 0.0 0.00 0.00 0.00 44 1020.2